Regional Weather Roundup
Issued by NWS Charleston, SC

Current Version | Previous Version | Graphics & Text | Print | Product List | Glossary On
Versions: 1 2 3 4 5 6 7 8 9 10 11 12 13 14 15 16 17 18 19 20 21 22 23 24 25 26 27 28 29 30 31 32 33 34 35 36 37 38 39 40 41 42 43 44 45 46 47 48 49 50
000
ASUS42 KCHS 052312
RWRCHS

REGIONAL WEATHER ROUNDUP
NATIONAL WEATHER SERVICE CHARLESTON SC
700 PM EDT TUE MAY 05 2015

NOTE: "FAIR" INDICATES FEW OR NO CLOUDS BELOW 12,000 FEET WITH NO
SIGNIFICANT WEATHER AND/OR OBSTRUCTIONS TO VISIBILITY.

NOT ALL STATIONS ARE QUALITY CONTROLLED BY THE NATIONAL
WEATHER SERVICE. USE DATA WITH CAUTION...ESPECIALLY
DEWPOINT OBSERVATIONS.

SCZ027-030-031-034>040-042>050-060000-
...SOUTHEAST SOUTH CAROLINA...

CITY           SKY/WX    TMP DP  RH WIND       PRES   REMARKS
N CHARLESTON   PTSUNNY   74  54  49 E14       30.25R
WATERFRONT PRK   N/A     72 N/A N/A E17         N/A
MOUNT PLEASANT FAIR      72  61  68 MISG      30.25S
PINOPOLIS      NOT AVBL
MONCKS CORNER  FAIR      75  55  50 E3        30.24S
SUMMERVILLE    FAIR      77  55  47 E5        30.24S
BEAUFORT MCAS  PTSUNNY   73  59  61 E15G22    30.23S
BEAUFORT ARPT  FAIR      72  59  64 E10G16    30.23S
HILTON HEAD IS MOSUNNY   72  61  68 NE9G17    30.24F
WALTERBORO     PTCLDY    75  48  38 E7        30.24R
ALLENDALE      FAIR      79  54  41 SE6       30.22R

...SOUTHERN MIDLANDS AND PEE DEE...

CITY           SKY/WX    TMP DP  RH WIND       PRES   REMARKS
GEORGETOWN     NOT AVBL
KINGSTREE      NOT AVBL
ORANGEBURG     SUNNY     78  50  37 SE7       30.23S
BARNWELL       FAIR      81  54  39 SE5       30.23S
AIKEN          FAIR      77  46  33 E9        30.26R
MANNING        FAIR      77  45  31 SE5       30.24S
COLUMBIA       MOSUNNY   80  52  37 SE10      30.22S
SUMTER         SUNNY     80  50  35 SE9       30.22S
FLORENCE       SUNNY     79  54  41 S13       30.23F
MYRTLE BEACH   SUNNY     73  57  56 E12       30.29S
N MYRTLE BEACH PTSUNNY   72  57  59 E7        30.27S

$$

GAZ063-065-086>088-099>101-113>116-118-119-134>141-150-060000-
...SOUTHEAST GEORGIA...

CITY           SKY/WX    TMP DP  RH WIND       PRES   REMARKS
SAVANNAH ARPT  CLOUDY    75  56  51 E12       30.22S
HUNTER AAF     PTSUNNY   73  59  62 E17       30.20S
FORT STEWART   PTSUNNY   75  58  55 E12       30.20S
STATESBORO       N/A     79  52  38 E7        30.21F
SYLVANIA       CLEAR     78  56  46 E6        30.22S
CLAXTON        FAIR      77  55  47 E7        30.21S

...CSRA...CENTRAL AND FAR SOUTHEAST GEORGIA...

CITY           SKY/WX    TMP DP  RH WIND       PRES   REMARKS
THOMSON        SUNNY     81  56  41 CALM      30.25S
AUGUSTA-BUSH   MOSUNNY   79  52  38 E8        30.21S
AUGUSTA-DANIEL SUNNY     81  46  29 E9        30.22S
SWAINSBORO     FAIR      79  36  21 E5        30.21S
VIDALIA        SUNNY     77  55  47 E9        30.20S
EASTMAN        FAIR      78  58  50 E3        30.21F
HAZLEHURST     FAIR      79  54  42 E7        30.18S
ALMA           MOSUNNY   77  56  48 E9        30.18S
WAYCROSS       MOSUNNY   80  61  51 E10       30.18S
JESUP          FAIR      77  61  57 E14       30.20S
BAXLEY         FAIR      79  55  44 E6        30.18S
BRUNSWICK      CLOUDY    73  61  64 NE16      30.21S
SAINT SIMONS   CLOUDY    72  61  68 NE17G23   30.20F

$$

SCZ027-028-034-036>038-045-046-048>050-GAZ119-141-060000-
...LAKE AND SUPPLEMENTAL COASTAL OBSERVATIONS...

STATION/POSITION TIME  TEMP    WIND        PRES    WAVE   SWELL
                       AIR SEA DIR/SP/G            HT/PER HT/PER/DIR
                 (UTC) (F)     (DEG/KT/KT) (MB)    (FT/S) (FT/S/D)
UPR LAKE MARION  NOT AVBL
WINYAH BAY       2145   72      70/ 10     1024.0
LAKE MURRAY      2200   79      80/ 11/ 12 1022.7F
ACE BASIN NERRS  NOT AVBL
FORT PULASKI     2200   71 71   60/ 18/ 20 1024.2S
SAPELO ISLAND    2200   73      60/ 12     1023.0S

$$

ANZ835-935-AMZ111-154-330-350-352-354-370-450-454-472-060000-
...C-MAN AND BUOY OBSERVATIONS...

STATION/POSITION TIME  TEMP    WIND        PRES    WAVE   SWELL
                       AIR SEA DIR/SP/G            HT/PER HT/PER/DIR
                 (UTC) (F)     (DEG/KT/KT) (MB)    (FT/S) (FT/S/D)
BUOY 41004       2250   73 74   60/ 14/ 16 1023.2F   4/ 6   2/10
BUOY 41008       2250   68 71   70/ 19/ 27 1022.7F   5/ 6   2/110/ 8
FOLLY BEACH CMAN 2200   71      80/ 15/ 17 1024.3F
CAPERS NEARSHORE 2208   71      80/ 14/ 17 1024.5F
FRIPP NEARSHORE  2200   71      80/ 14/ 16 1023.0F


STATION/POSITION TIME  TEMP    WIND        PRES    WAVE   SWELL
                       AIR SEA DIR/SP/G            HT/PER HT/PER/DIR
                 (UTC) (F)     (DEG/KT/KT) (MB)    (FT/S) (FT/S/D)
5E ST. MARYS GA  2221      72                N/A     5/ 6
FRYING PAN BUOY  2250   73 72  110/ 10/ 12 1025.6F   3/ 5   3/120/ 5
BUOY 41025       2250   72 77  160/ 16/ 17 1025.7F   3/11   2/ 70/11
CAPE LOOKOUT NC  2200   69     150/  7/  8 1025.7F
BUOY 41002       2250   70 70  100/ 19/ 21 1024.5F   5/ 6   2/ 80/ 9
BUOY 41010       2220   75 78   70/ 17/ 21 1019.1S
ST AUGUSTINE FL  2300   72 74   10/ 13/ 15 1021.6F


$$



USA.gov is the U.S. government's official web portal to all federal, state and local government web resources and services.